Terminal Aerodrome Forecast
Issued by NWS

Home | Current Version | Previous Version | Text Only | Print | Product List | Glossary On
Versions: 1 2 3 4 5 6 7 8 9 10 11 12 13 14 15 16 17 18 19 20 21 22 23 24 25 26 27 28 29 30 31 32 33 34
806
FTUS43 KDLH 130557 AAA
TAFBRD
TAF AMD
KBRD 130557Z 1306/1406 13007KT P6SM VCSH SCT009 OVC050
      TEMPO 1306/1307 BKN008 OVC060
     FM130700 15005KT 4SM -FZDZSN SCT009 OVC030
      TEMPO 1307/1309 2SM -FZDZSN BKN009 OVC030
     FM131100 VRB04KT 6SM BR VCSH OVC008
     FM131800 34015G24KT P6SM BKN020
     FM132100 34014G23KT P6SM BKN040
     FM140000 34008KT P6SM BKN035=

USA.gov is the U.S. government's official web portal to all federal, state and local government web resources and services.